Zurück zum Katalog

FENGYUN 1C DEB *

LostSSO
NORAD 47020·DEBRIS·🇨🇳 China

Gestartet May 10, 1999 von Taiyuan Satellite Launch Center

Loading…

Nächste Überflüge (nächste 24 Stunden)

TLE

VeraltetSource: Space-Track

Epoche: Oct 15, 2021, 03:16 UTC

1 47020U 99025FAW 21288.13668615  .00001284  00000-0  75378-3 0  9993
2 47020  98.5079 321.0647 0106769 241.9598 145.3249 14.07002334470602

Verfolge FENGYUN 1C DEB * in Echtzeit mit AllMySat

Download on the App Store